Regional Weather Roundup
Issued by NWS

Home | Current Version | Previous Version | Text Only | Print | Product List | Glossary Off
Versions: 1 2 3 4 5 6 7 8 9 10 11 12 13 14 15 16 17 18 19 20 21 22 23 24 25 26 27 28 29 30 31 32 33 34 35 36 37 38 39 40 41 42 43 44 45 46 47 48 49 50

000
ASUS43 KMPX 031101
RWRMN
WEATHER ROUNDUP FOR MINNESOTA
NATIONAL WEATHER SERVICE TWIN CITIES/CHANHASSEN MN
600 AM CDT SUN MAY 03 2015


NOTE: "FAIR" INDICATES FEW OR NO CLOUDS BELOW 12,000 FEET WITH NO
SIGNIFICANT WEATHER AND/OR OBSTRUCTIONS TO VISIBILITY. N/A MEANS
CURRENT SKY AND/OR WEATHER CONDITIONS ARE NOT AVAILABLE.

MNZ060>063-068>070-031200-
   Twin Cities Metro

CITY           SKY/WX    TMP DP  RH WIND       PRES   REMARKS
TWIN CITIES    MOCLDY    57  50  77 SE5       29.78S
ST PAUL        MOCLDY    52  50  93 SE6       29.79S
CRYSTAL        MOCLDY    56  51  84 SE7       29.75F
BLAINE         MOCLDY    57  54  88 SE3       29.77S
LAKEVILLE      CLOUDY    52  48  87 NE3       29.78S
EDEN PRAIRIE   CLOUDY    55  49  80 SE9       29.76F
SOUTH ST PAUL  MOCLDY    54  48  81 CALM      29.78F
LAKE ELMO      FAIR      52  48  87 S3        29.80S
$$
MNZ001>005-007-008-013>017-022>024-027-028-031200-
   Northwest Minnesota

CITY           SKY/WX    TMP DP  RH WIND       PRES   REMARKS
BEMIDJI        PTCLDY    54  47  77 W7        29.71R
HALLOCK        PTCLDY    45  37  76 NW9       29.73R
ROSEAU         MOCLDY    46  39  76 CALM      29.71R
WARROAD        MOCLDY    48  43  81 W6        29.69R
THIEF RVR FALL PTCLDY    45  41  87 W3        29.72R
CROOKSTON      MOCLDY    43  39  87 NW6       29.74R
MOORHEAD       CLEAR     46  43  87 CALM      29.74R
PARK RAPIDS    CLEAR     54  48  80 NW5       29.70R
MAHNOMEN       FAIR      49  45  87 SW3       29.72R
$$
MNZ006-009>011-018-025>026-031200-
   North Central Minnesota

CITY           SKY/WX    TMP DP  RH WIND       PRES   REMARKS
BAUDETTE       PTCLDY    45  41  86 W7        29.67R
FLAG ISLAND    PTCLDY    50  43  76 NW13      29.66R
INTL FALLS     PTCLDY    43  40  89 SW3       29.66R
WASKISH        PTCLDY    54  48  82 CALM      29.69R
BIG FORK       CLEAR     54  45  71 SW6       29.69R
LONGVILLE      PTCLDY    59  50  72 SW5       29.70R
GRAND RAPIDS   PTCLDY    63  45  51 SW8       29.69R
CRANE LAKE     PTCLDY    45  43  93 S3        29.67R
ORR            CLEAR     57  39  51 CALM      29.65R
COOK           PTCLDY    55  43  62 CALM      29.69R
WALKER         FAIR      59  49  69 W7        29.68R
$$
MNZ012-019>021-037-031200-
   Northeast Minnesota

CITY           SKY/WX    TMP DP  RH WIND       PRES   REMARKS
DULUTH         CLOUDY    61  49  64 S10       29.68F
ELY            MOCLDY    55  45  67 SW5       29.68R
HIBBING        MOCLDY    44  39  82 CALM      29.68R
EVELETH        MOCLDY    52  45  76 CALM      29.69R
DULUTH HARBOR  CLOUDY    48  46  93 CALM      29.68F
TWO HARBORS    CLOUDY    55  48  76 W7        29.69R
SILVER BAY     CLOUDY    46  45  93 CALM      29.69R
GRAND MARAIS     N/A     42  39  89 CALM      29.71R
G MARAIS ARPRT LGT RAIN  52  39  62 SW6       29.73R
$$
MNZ029>031-032-039>041-046>048-054>057-064-031200-
   West Central Minnesota

CITY           SKY/WX    TMP DP  RH WIND       PRES   REMARKS
FERGUS FALLS   CLEAR     55  50  82 W3        29.72R
WHEATON        CLEAR     54  50  87 SE6       29.71R
MORRIS         PTCLDY    57  54  88 SE10      29.69S
ALEXANDRIA     PTCLDY    58  54  86 S8        29.71F
ELBOW LAKE     FAIR      57  53  86 SE6       29.69S
WADENA         FAIR      54  48  82 SW3       29.70R
GLENWOOD       MOCLDY    57  54  88 SE7       29.73F
APPLETON       PTCLDY    57  52  82 E8        29.69S
BENSON         PTCLDY    59  52  77 SE9       29.71S
ORTONVILLE     PTCLDY    57  52  82 E6        29.69S
MADISON        PTCLDY    57  52  82 E7        29.69S
WILLMAR        FAIR      57  52  82 E9        29.73F
$$
MNZ033>034-036-042>043-049>051-058-059-031200-
   Central Minnesota

CITY           SKY/WX    TMP DP  RH WIND       PRES   REMARKS
ST CLOUD       CLOUDY    57  54  89 SE7       29.73F
SAUK CENTRE    CLOUDY    57  54  91 S13       29.71F
PAYNESVILLE    CLOUDY    55  51  85 CALM      29.75R
AITKIN         PTCLDY    57  50  77 S7        29.69S
PINE RIVER     CLEAR     55  50  82 CALM      29.74R
BRAINERD       PTCLDY    54  50  86 S5        29.70F
STAPLES        PTCLDY    52  48  87 S3        29.70R
LONG PRAIRIE   FAIR      57  54  88 S7        29.72R
LITTLE FALLS   MOCLDY    57  52  82 SE5       29.70F
LITCHFIELD     CLOUDY    57  54  88 SE6       29.75F
BUFFALO        CLOUDY    56  50  79 CALM      29.78R
MAPLE LAKE     CLOUDY    56  53  88 SE3       29.77R
$$
MNZ037-044-045-052-053-031200-
   East Central Minnesota

CITY           SKY/WX    TMP DP  RH WIND       PRES   REMARKS
PRINCETON      DRIZZLE   59  54  82 S5        29.76S
MORA           CLOUDY    55  52  88 S14       29.75F
CAMBRIDGE      MOCLDY    61  48  63 S6        29.74F
RUSH CITY      MOCLDY    59  51  75 S6        29.75F
MOOSE LAKE     CLOUDY    55  52  88 S5        29.71R
HINCKLEY       FAIR      59  54  82 S8        29.73F
CLOQUET        CLOUDY    61  50  67 S10G17    29.70R
MCGREGOR       MOCLDY    59  52  77 S8        29.72R
$$
MNZ071>073-080-081-089-090-097-098-031200-
   Southwest Minnesota

CITY           SKY/WX    TMP DP  RH WIND       PRES   REMARKS
MONTEVIDEO     MOCLDY    55  52  88 SE7       29.72S
GRANITE FALLS  MOCLDY    54  49  85 E10       29.71F
CANBY          CLOUDY    60  53  76 S7        29.68F
MARSHALL       MOCLDY    55  48  76 S8        29.70F
REDWOOD FALLS  CLOUDY    54  50  86 E6        29.72R
OLIVIA         MOCLDY    52  46  82 E8        29.72F
PIPESTONE      PTCLDY    55  52  88 VRB5      29.72S
WORTHINGTON    CLOUDY    50  46  87 SE7       29.74S
JACKSON        CLOUDY    54  50  87 S7        29.74S
TRACY          CLOUDY    56  52  85 SW3       29.72R
SLAYTON        CLOUDY    52  50  93 CALM      29.73R
$$
MNZ065>067-074>077-082>085-091>093-031200-
   South Central Minnesota

CITY           SKY/WX    TMP DP  RH WIND       PRES   REMARKS
MANKATO        CLOUDY    54  46  76 SE8       29.75S
NEW ULM        CLOUDY    54  52  94 SE8       29.73F
ST JAMES       CLOUDY    54  50  87 SE6       29.74F
FAIRMONT       CLOUDY    54  46  76 S8        29.74S
GLENCOE        CLOUDY    56  52  87 SE5       29.75R
FARIBAULT      CLOUDY    55  50  82 MISG      29.78S
OWATONNA       CLOUDY    55  48  76 SE10      29.76F
WASECA         CLOUDY    54  46  76 SE6       29.77F
ALBERT LEA     CLOUDY    55  50  82 S6        29.76F
$$
MNZ078>079-086>088-094>096-031200-
   Southeast Minnesota

CITY           SKY/WX    TMP DP  RH WIND       PRES   REMARKS
ROCHESTER      CLOUDY    55  48  77 S12       29.79F
RED WING       MOCLDY    55  48  76 E3        29.78F
STANTON        CLOUDY    56  49  75 S6        29.76F
DODGE CENTER   CLOUDY    55  48  76 S9        29.79R
WINONA         PTCLDY    61  48  63 S6        29.80F
AUSTIN         CLOUDY    54  48  82 S5        29.78F
PRESTON        CLOUDY    55  48  79 S9G16     29.80F
$$
ABBREVIATIONS USED IN REMARKS
   TC - TEMPERATURES IN CELSIUS
  WCI - WIND CHILL INDEX
   HX - HEAT INDEX
  VSB - VISIBILITY
$$



USA.gov is the U.S. government's official web portal to all federal, state and local government web resources and services.